User: anonymous   Login
Location: Oshawa
(43.9000°N, 78.8670°W)
Time: 20:51:23
(UTC-04:00)
Language:

CZ-4C R/B - Orbit

View from above orbital plane
View from above orbital plane
View from above satellite
View from above satellite

Ground track
Ground track

The orbit data is extracted from the following two-line orbital elements,

1 32290U 07055B   17203.54514867 +.00001436 +00000-0 +42067-4 0  9993
2 32290 097.5332 310.7303 0067104 007.7185 352.5074 15.34835217537167
Epoch (UTC): 22 July 2017 13:05:00
Eccentricity: 0.0067104
inclination: 97.5332°
perigee height: 415 km
apogee height: 507 km
right ascension of ascending node: 310.7303°
argument of perigee: 7.7185°
revolutions per day: 15.34835217
mean anomaly at epoch: 352.5074°
orbit number at epoch: 53716

The dashed part of the orbit path shows where the satellite is in the earth's shadow,  

DLR